Retour au catalogue

COSMOS 2486

ActifNavigationSSO
NORAD 39177·PAYLOAD·🇷🇺 Russia

Lancé Jun 7, 2013 depuis Plesetsk Cosmodrome

Loading…

Prochains Passages (prochaines 24 heures)

TLE

FraisSource: Space-Track

Époque: Sep 14, 2026, 14:44 UTC

1 39177U 13028A   26257.61423437 -.00000049  00000-0 -11294-5 0  9990
2 39177  98.0253 221.5828 0012246  95.8246 264.4349 14.56224103704396

Suivez COSMOS 2486 en temps réel avec AllMySat

Download on the App Store